Flag for Germany Weather past 2 weeks in Gotha, Thuringia, Germany

Now
40 °F

Overcast.


Feels Like: 34 °F
Forecast: 33 / 39 °F
Wind: 9 mph from West

Location: Erfurt-Bindersleben

Current Time: Mar 4, 2015 at 4:52:36 PM

Latest Report: Mar 4, 2015 at 4:00 PM


Visibility: 31 mi

Pressure: 30.25 "Hg

Humidity: 69%

Dew point: 31 °F

Location of GothaLocation

Historic Weather in Gotha — Graph

°F

Gotha temperature yesterday

Maximum temperature yesterday: 46 °F (at 4:00 PM)
Minimum temperature yesterday: 32 °F (at 7:00 AM)
Average temperature yesterday: 38 °F

Past Weeks' High & Low Weather Summary

 TemperatureHumidityPressure
High47 °F (Feb 26, 3:00 PM)99% (Feb 18, 9:00 AM)30.78 "Hg (Feb 18, 9:00 AM)
Low22 °F (Feb 19, 5:00 AM)46% (Feb 26, 2:00 PM)29.44 "Hg (Feb 21, 8:00 AM)
Average36 °F80%29.99 "Hg
* Reported Feb 17 3:00 PM — Mar 4 3:00 PM, Gotha, Weather by CustomWeather, © 2015

Note: Actual official high and low records may vary slightly from our data, if they occured in-between our weather recording intervals... More about our weather records

Advertising

Gotha weather history for previous 24 hours

 ConditionsComfort  
Time TempWeatherWind HumidityBarometerVisibility
3:00 PM
Wed, Mar 4
41 °FOvercast.9 mph65%30.25 "Hg37 mi
2:00 PM40 °FOvercast.9 mph68%30.25 "Hg31 mi
1:00 PM39 °FOvercast.9 mph70%30.24 "Hg25 mi
12:00 PM38 °FOvercast.10 mph73%30.24 "Hg25 mi
11:00 AM39 °FPartly sunny.9 mph77%30.24 "Hg25 mi
10:00 AM37 °FPassing clouds.8 mph83%30.23 "Hg19 mi
9:00 AM34 °FSunny.6 mph88%30.22 "Hg19 mi
8:00 AM33 °FPassing clouds.7 mph91%30.20 "Hg19 mi
7:00 AM31 °FScattered clouds.3 mph93%30.19 "Hg19 mi
6:00 AM32 °FPassing clouds.6 mph95%30.17 "Hg28 mi
5:00 AM32 °FPassing clouds.5 mph97%30.15 "Hg16 mi
4:00 AM33 °FSnow showers. Low clouds.7 mph98%30.14 "Hg1 mi
3:00 AM34 °FPassing clouds.6 mph93%30.10 "Hg22 mi
2:00 AM34 °FPassing clouds.5 mph94%30.09 "Hg22 mi
1:00 AM36 °FOvercast.6 mph95%30.08 "Hg19 mi
12:00 AM36 °FOvercast.7 mph95%30.05 "Hg22 mi
11:00 PM
Tue, Mar 3
34 °FLight rain. Overcast.8 mph97%30.05 "Hg12 mi
10:00 PM33 °FSnow showers. Low clouds.8 mph97%30.05 "Hg1 mi
9:00 PM40 °FSprinkles. Overcast.16 mph80%29.99 "Hg16 mi
8:00 PM44 °FOvercast.14 mph60%29.96 "Hg31 mi
7:00 PM44 °FOvercast.12 mph58%29.96 "Hg31 mi
6:00 PM44 °FOvercast.12 mph56%29.97 "Hg40 mi
5:00 PM44 °FPartly sunny.12 mph54%29.99 "Hg40 mi
4:00 PM46 °FPartly sunny.12 mph49%30.01 "Hg43 mi
Weather by CustomWeather, © 2015

See weather overviewHow to use our weather pages